sat.trackr.live / text

‹ back to catalog

STARLINK-35983

NORAD 66902 · 2025-283AA

PAYLOAD ACTIVE UNKNOWN

§ Identity

Operator
Country
US
Launch date
2025-12-04
Launch site
AFWTR
Launch vehicle
Mass (kg)
RCS (m²)

Purposes: comms

External: N2YO · Heavens-Above · Gunter

§ Orbital elements

Epoch: 2026-05-25T02:13:47.182080Z

Period
93.85 min
Inclination
53.1598°
Eccentricity
0.0001055
Mean motion
15.34395070 rev/d
Perigee alt
462.0 km
Apogee alt
463.4 km
Semi-major
6,840.9 km
B*
4.1981e-4
RAAN
29.1493°
Arg perigee
81.8141°
Mean anomaly
278.2981°
Rev number
2,754

§ Raw data

STARLINK-359831 66902U 25283AA  26145.09290720  .00013832  00000+0  41981-3 0  99922 66902  53.1598  29.1493 0001055  81.8141 278.2981 15.34395070 27540

JSON: /api/v1/satellites/66902 · /tle

For live sub-satellite position, see the globe view (requires WebGL).

§ Visibility from observer

Set your observer location to see the next 7 days of passes ≥ 10°. The values pass through the URL so the page stays shareable.

No JS? Fill the form by hand. The geolocation button needs JavaScript.